Regional Weather Roundup
Issued by NWS Little Rock, AR

Home | Current Version | Previous Version | Graphics & Text | Print | Product List | Glossary On
Versions: 1 2 3 4 5 6 7 8 9 10 11 12 13 14 15 16 17 18 19 20 21 22 23 24 25 26 27
000
ASUS44 KLZK 031505
RWRLZK

WEATHER ROUNDUP FOR ARKANSAS
NATIONAL WEATHER SERVICE LITTLE ROCK AR
1000 AM CDT TUE MAY 03 2016

NOTE: "FAIR" INDICATES FEW OR NO CLOUDS BELOW 12,000 FEET WITH NO
SIGNIFICANT WEATHER AND/OR OBSTRUCTIONS TO VISIBILITY.

ARZ001-003-010-029-031600-
NORTHWEST ARKANSAS

CITY           SKY/WX    TMP DP  RH WIND       PRES   REMARKS
FAYETTEVILLE   PTSUNNY   54  48  80 CALM      30.11R
FORT SMITH     SUNNY     58  44  60 VRB3      30.11S
HARRISON       CLOUDY    54  45  71 NW7       30.10R
BENTONVILLE    MOSUNNY   55  43  62 NE6       30.12R
ROGERS         MOSUNNY   54  46  74 N6        30.12R
SILOAM SPGS    PTSUNNY   55  43  62 N6        30.12S
HIGHFILL       PTSUNNY   58  49  72 N6        30.11R
SPRINGDALE     MOSUNNY   55  46  71 N5        30.12S
$$

ARZ004-005-016-031600-
NORTH CENTRAL ARKANSAS

CITY           SKY/WX    TMP DP  RH WIND       PRES   REMARKS
BATESVILLE     CLOUDY    57  48  72 N3        30.09R
FLIPPIN        PTSUNNY  N/A N/A N/A N8        30.06S
MTN HOME       PTSUNNY   56  45  66 VRB3      30.07S
$$

ARZ040-041-031600-
WEST CENTRAL ARKANSAS

CITY           SKY/WX    TMP DP  RH WIND       PRES   REMARKS
MENA           NOT AVBL
MOUNT IDA      PTSUNNY   58  46  64 NW3       30.07S
$$

ARZ009-017-025-026-028-031600-
NORTHEAST ARKANSAS

CITY           SKY/WX    TMP DP  RH WIND       PRES   REMARKS
JONESBORO      CLOUDY    59  49  69 N8        30.06R
NEWPORT        CLOUDY    58  50  75 N8        30.09R
WALNUT RIDGE   CLOUDY    57  46  67 N9        30.06S
BLYTHEVILLE    CLOUDY    60  52  74 N10       30.05R
$$

ARZ022-023-033-042-044-031600-
CENTRAL ARKANSAS

CITY           SKY/WX    TMP DP  RH WIND       PRES   REMARKS
LITTLE ROCK    PTSUNNY   62  48  60 NW9       30.09R
N LITTLE ROCK    N/A     60  51  69 N6        30.07S
JACKSONVILLE   MOSUNNY   61  50  67 N8        30.08R
SEARCY         PTSUNNY   61  50  67 N9        30.09S
HOT SPRINGS    MOSUNNY   60  46  59 NE5       30.09S
RUSSELLVILLE   SUNNY     60  48  64 N7        30.09S
$$

ARZ036-031600-
EAST ARKANSAS

CITY           SKY/WX    TMP DP  RH WIND       PRES   REMARKS
WEST MEMPHIS   CLOUDY    61  52  72 N6        30.04S
$$

ARZ050-053-066-070-073-031600-
SOUTHWEST ARKANSAS

CITY           SKY/WX    TMP DP  RH WIND       PRES   REMARKS
ARKADELPHIA    FAIR      62  54  75 N7        30.09S
CAMDEN         PTSUNNY   63  50  63 N6        30.08S
TEXARKANA      SUNNY     61  48  62 N12       30.10R
EL DORADO      PTSUNNY   62  54  74 N8        30.07S
DE QUEEN       SUNNY     61  48  62 N8        30.10R
$$

ARZ056-057-069-031600-
SOUTHEAST ARKANSAS

CITY           SKY/WX    TMP DP  RH WIND       PRES   REMARKS
PINE BLUFF     CLOUDY    60  51  72 N12       30.07S
STUTTGART      CLOUDY    61  48  63 N12       30.08R
MONTICELLO     SUNNY     64  52  64 N8        30.05R

$$






USA.gov is the U.S. government's official web portal to all federal, state and local government web resources and services.